CW2927 Weather Reports


Display with metric or nautical units.
time (UTC)temp
F
wind
direction
speed
MPH
gust
MPH
rain 1hr
in
rain 24hr
in
rain mn
in
humidity
%
barometer
mb
20260831224705 70 192 0.0 1.0 0.00 0.01 0.01 61 1017.1
20260831224205 70 192 2.0 3.0 0.00 0.01 0.01 61 1017.2
20260831222704 72 195 0.0 3.0 0.00 0.01 0.01 59 1017.3
20260831222205 72 202 2.0 3.0 0.00 0.01 0.01 58 1017.3
20260831220705 73 173 1.0 3.0 0.00 0.01 0.01 55 1017.4
20260831220204 73 173 2.0 3.0 0.00 0.01 0.01 55 1017.4
20260831212705 73 0 2.0 3.0 0.00 0.18 0.01 56 1017.5
20260831212205 73 273 2.0 7.0 0.00 0.18 0.01 55 1017.5
20260831210705 73 266 3.0 5.0 0.00 0.18 0.01 55 1017.6
20260831204204 73 286 2.0 6.0 0.00 0.18 0.01 55 1017.7
20260831202704 73 271 3.0 6.0 0.00 0.18 0.01 54 1017.7
20260831202205 73 263 3.0 6.0 0.00 0.18 0.01 54 1017.8
20260831200704 73 285 2.0 5.0 0.00 0.18 0.01 53 1017.9
20260831200205 73 284 3.0 7.0 0.00 0.18 0.01 54 1017.9
20260831194704 73 294 3.0 6.0 0.00 0.18 0.01 53 1018.0
20260831194204 73 300 2.0 7.0 0.00 0.18 0.01 53 1018.1
20260831192204 73 265 3.0 5.0 0.00 0.18 0.01 57 1018.0
20260831190704 73 161 2.0 3.0 0.00 0.19 0.01 57 1018.2
20260831184704 72 288 2.0 5.0 0.00 0.31 0.01 60 1018.6
20260831184204 72 284 2.0 7.0 0.00 0.31 0.01 57 1018.6
20260831182705 71 40 1.0 3.0 0.00 0.31 0.01 60 1018.8
20260831182206 71 276 3.0 7.0 0.00 0.31 0.01 60 1018.9
20260831180704 71 298 3.0 7.0 0.00 0.31 0.01 60 1018.9
20260831180204 71 292 3.0 8.0 0.00 0.31 0.01 58 1018.9
20260831174704 70 263 2.0 5.0 0.00 0.31 0.01 62 1018.9
20260831174204 70 254 3.0 5.0 0.00 0.31 0.01 60 1018.9
20260831172704 71 155 2.0 5.0 0.00 0.31 0.01 63 1019.0
20260831172204 70 148 2.0 6.0 0.00 0.31 0.01 60 1019.1
20260831170704 69 38 1.0 3.0 0.00 0.31 0.01 64 1019.3
20260831170205 69 325 2.0 6.0 0.00 0.31 0.01 61 1019.4
20260831164704 69 257 2.0 5.0 0.00 0.31 0.01 65 1019.5
20260831164204 69 254 2.0 5.0 0.00 0.31 0.01 66 1019.5
20260831162704 68 285 2.0 3.0 0.00 0.31 0.01 67 1019.5
20260831162204 68 303 0.0 3.0 0.00 0.31 0.01 67 1019.7
20260831160704 68 196 2.0 5.0 0.00 0.31 0.01 66 1019.6
20260831160205 67 105 1.0 3.0 0.00 0.31 0.01 68 1019.6
20260831154704 67 102 1.0 3.0 0.00 0.31 0.01 64 1019.8
20260831154205 67 103 2.0 5.0 0.00 0.31 0.01 64 1019.8
20260831152704 67 76 1.0 3.0 0.00 0.31 0.01 68 1019.9
20260831152204 67 76 3.0 5.0 0.00 0.31 0.01 68 1020.0
20260831150704 66 65 2.0 5.0 0.00 0.31 0.01 72 1020.1
20260831144204 65 82 2.0 6.0 0.00 0.31 0.01 75 1020.4
20260831142704 64 98 2.0 5.0 0.00 0.31 0.01 82 1020.4
20260831142204 63 77 2.0 3.0 0.00 0.31 0.01 85 1020.5
20260831140704 61 71 3.0 5.0 0.00 0.31 0.01 96 1020.7
20260831140204 60 106 2.0 5.0 0.00 0.31 0.01 96 1020.7
20260831134704 58 119 1.0 2.0 0.00 0.31 0.01 97 1020.8
20260831134204 58 119 1.0 3.0 0.00 0.31 0.01 97 1020.9
20260831132704 56 75 1.0 2.0 0.00 0.31 0.01 96 1020.8
20260831132204 56 75 2.0 3.0 0.00 0.31 0.01 97 1020.8
20260831130703 54 55 2.0 3.0 0.00 0.31 0.01 96 1020.6
20260831124704 53 50 1.0 1.0 0.00 0.31 0.01 96 1020.7
20260831124204 53 50 1.0 2.0 0.00 0.31 0.01 96 1020.7
20260831122704 52 50 1.0 2.0 0.00 0.31 0.01 96 1020.6
20260831122204 52 50 0.0 3.0 0.00 0.31 0.01 96 1020.6
20260831120704 51 49 0.0 1.0 0.00 0.31 0.01 96 1020.3
20260831120204 50 49 1.0 2.0 0.00 0.31 0.01 96 1020.3
20260831114704 49 49 1.0 2.0 0.01 0.31 0.01 96 1020.3
20260831114204 49 49 1.0 2.0 0.01 0.31 0.01 96 1020.3
20260831112704 48 49 0.0 2.0 0.01 0.31 0.01 96 1020.2
20260831112204 48 49 1.0 2.0 0.01 0.31 0.01 96 1020.1
20260831110704 47 49 0.0 1.0 0.01 0.31 0.01 95 1020.0
20260831104704 46 49 0.0 1.0 0.00 0.31 0.00 95 1020.0
20260831104204 46 49 0.0 2.0 0.00 0.31 0.00 95 1019.9
20260831102704 46 49 1.0 2.0 0.00 0.31 0.00 95 1019.7
20260831102204 46 49 1.0 2.0 0.00 0.31 0.00 95 1019.6
20260831100704 46 49 1.0 2.0 0.00 0.31 0.00 95 1019.6
20260831100204 46 49 1.0 3.0 0.00 0.31 0.00 95 1019.5
20260831094704 46 46 0.0 1.0 0.00 0.31 0.00 95 1019.3
20260831094204 47 46 1.0 2.0 0.00 0.31 0.00 95 1019.3
20260831092704 47 46 0.0 1.0 0.00 0.31 0.00 95 1019.2
20260831092204 47 46 0.0 1.0 0.00 0.31 0.00 95 1019.3
20260831090704 47 46 0.0 0.0 0.00 0.31 0.00 95 1019.1
20260831090204 47 46 0.0 1.0 0.00 0.31 0.00 95 1019.0
20260831084704 47 46 0.0 0.0 0.00 0.31 0.00 95 1018.9
20260831082704 48 46 0.0 1.0 0.00 0.31 0.00 95 1018.9
20260831082204 48 46 0.0 2.0 0.00 0.31 0.00 95 1018.9
20260831080703 48 46 0.0 0.0 0.00 0.31 0.00 95 1018.8
20260831080203 48 46 0.0 0.0 0.00 0.31 0.00 95 1018.8
20260831072705 49 46 0.0 1.0 0.00 0.31 0.00 95 1018.8
20260831064705 50 46 0.0 0.0 0.00 0.31 0.00 95 1018.7
20260831064205 50 46 0.0 0.0 0.00 0.31 0.00 95 1018.7
20260831062705 51 46 0.0 0.0 0.00 0.31 0.00 95 1018.7
20260831062205 51 46 0.0 0.0 0.00 0.31 0.00 95 1018.7
20260831060705 51 46 0.0 0.0 0.00 0.31 0.00 95 1018.7
20260831060205 51 46 0.0 0.0 0.00 0.31 0.00 95 1018.8
20260831054205 52 46 0.0 2.0 0.00 0.31 0.00 95 1018.8
20260831052705 52 46 0.0 0.0 0.00 0.31 0.00 95 1018.5
20260831052205 52 46 0.0 1.0 0.00 0.31 0.00 95 1018.6
20260831050705 52 46 0.0 1.0 0.00 0.31 0.00 95 1018.6
20260831050205 52 46 1.0 2.0 0.00 0.32 0.00 95 1018.6
20260831044706 53 46 0.0 0.0 0.00 0.36 0.00 95 1018.5
20260831042705 53 46 0.0 0.0 0.00 0.40 0.00 95 1018.6
20260831042205 53 46 0.0 1.0 0.00 0.41 0.00 95 1018.5
20260831040705 53 46 0.0 0.0 0.00 0.41 0.00 95 1018.4
20260831040205 54 46 0.0 2.0 0.00 0.41 0.00 95 1018.4
20260831034705 54 46 0.0 0.0 0.00 0.41 0.41 94 1018.4
20260831034205 54 46 0.0 0.0 0.00 0.41 0.41 95 1018.3
20260831032705 54 46 0.0 0.0 0.00 0.41 0.41 94 1018.1
20260831032204 54 46 0.0 1.0 0.00 0.41 0.41 94 1018.1
20260831030705 54 46 0.0 0.0 0.00 0.41 0.41 94 1017.7
20260831030205 55 46 0.0 0.0 0.00 0.41 0.41 94 1017.6
20260831024704 55 46 0.0 0.0 0.00 0.41 0.41 94 1017.6
20260831024205 55 46 0.0 0.0 0.00 0.41 0.41 94 1017.6
20260831022705 56 46 0.0 0.0 0.00 0.41 0.41 94 1017.4
20260831022205 56 46 0.0 2.0 0.00 0.41 0.41 94 1017.2
20260831020705 56 46 1.0 3.0 0.00 0.41 0.41 94 1017.0
20260831020205 56 41 0.0 1.0 0.00 0.41 0.41 94 1017.1
20260831014705 57 40 1.0 1.0 0.00 0.41 0.41 93 1017.2
20260831014205 57 40 0.0 2.0 0.00 0.41 0.41 93 1017.2
20260831012705 57 40 0.0 1.0 0.00 0.41 0.41 93 1017.0
20260831012205 57 40 0.0 1.0 0.00 0.41 0.41 93 1016.9
20260831010705 58 40 0.0 0.0 0.00 0.41 0.41 92 1016.8
20260831010205 58 40 0.0 0.0 0.00 0.41 0.41 92 1016.5
20260831004704 58 40 0.0 0.0 0.00 0.41 0.41 91 1016.4
20260831004206 59 40 0.0 1.0 0.00 0.41 0.41 91 1016.3
20260831002705 59 40 0.0 1.0 0.00 0.41 0.41 91 1015.9
20260831002205 59 40 0.0 2.0 0.00 0.41 0.41 92 1015.9
20260831000705 59 40 0.0 1.0 0.00 0.41 0.41 92 1015.5
20260831000205 60 40 0.0 1.0 0.00 0.41 0.41 92 1015.4
20260830234704 60 40 0.0 0.0 0.00 0.41 0.41 91 1015.1
20260830234204 60 40 0.0 2.0 0.00 0.41 0.41 91 1014.9
20260830232705 61 40 0.0 1.0 0.00 0.41 0.41 90 1014.7
20260830232205 61 40 0.0 1.0 0.00 0.41 0.41 90 1014.6